Weather History for El Centro, CA

Change the Weather History Date:

Sunday, September 22, 2013

  Actual Average Record
Temperature  
Mean Temperature 80 °F -  
Max Temperature 90 °F 97 °F 107 °F (2003)
Min Temperature 69 °F 72 °F 61 °F (2007)
Cooling Degree Days 14    
Growing Degree Days 30 (Base 50)    
Moisture  
Dew Point 42 °F    
Average Humidity 32    
Maximum Humidity 49    
Minimum Humidity 11    
Precipitation  
Precipitation 0.00 in - - ()
Sea Level Pressure  
Sea Level Pressure 29.74 in    
Wind  
Wind Speed 19 mph (WNW)    
Max Wind Speed 30 mph    
Max Gust Speed 40 mph    
Visibility 10 miles    
Events      
Averages and records for this station are not official NWS values.
T = Trace of Precipitation, MM = Missing Value Source: NWS Daily Summary

Daily Weather History Graph

Daily Weather History Graph

Search for Another Location

Airport:

Trip Planner

Search our weather history database for the weather conditions in past years. The results will help you decide how hot, cold, wet, or windy it might be!

Date:

Astronomy

Sep. 22, 2013 Rise Set
Actual Time 6:31 AM PDT 6:38 PM PDT
Civil Twilight 6:06 AM PDT 7:03 PM PDT
Nautical Twilight 5:37 AM PDT 7:32 PM PDT
Astronomical Twilight 5:08 AM PDT 8:01 PM PDT
Moon 8:45 PM PDT (9/22) 9:42 AM PDT (9/22)
Length of Visible Light 12h 57m
Length of Day
12h 07m
Waning Gibbous, 88% of the Moon is Illuminated
Sep 22
Waning Gibbous
Sep 26
Last Quarter
Oct 4
New
Oct 11
First Quarter
Oct 18
Full

Hourly Weather History & Observations

Time (PDT) Temp. Dew Point Humidity Pressure Visibility Wind Dir Wind Speed Gust Speed Precip Events Conditions
12:56 AM 73.0 °F 51.1 °F 46% 29.72 in 10.0 mi WSW 24.2 mph - N/A   Clear
1:56 AM 72.0 °F 52.0 °F 49% 29.72 in 10.0 mi West 26.5 mph - N/A   Clear
2:29 AM 73.0 °F 50.0 °F 44% 29.66 in 5.0 mi West 23.0 mph 36.8 mph N/A   Haze
2:40 AM 72.0 °F 50.0 °F 46% 29.65 in 5.0 mi West 29.9 mph 38.0 mph N/A   Haze
2:53 AM 71.6 °F 48.2 °F 43% 29.64 in 9.0 mi West 27.6 mph 40.3 mph N/A   Scattered Clouds
2:56 AM 72.0 °F 48.9 °F 44% 29.68 in 9.0 mi West 25.3 mph 40.3 mph N/A   Scattered Clouds
3:56 AM 71.1 °F 50.0 °F 47% 29.72 in 10.0 mi WSW 27.6 mph 35.7 mph N/A   Clear
4:56 AM 70.0 °F 48.9 °F 47% 29.73 in 10.0 mi WSW 18.4 mph - N/A   Clear
5:56 AM 69.1 °F 48.9 °F 49% 29.75 in 10.0 mi WSW 16.1 mph - N/A   Clear
6:56 AM 69.1 °F 48.0 °F 47% 29.75 in 10.0 mi West 23.0 mph - N/A   Clear
7:56 AM 73.0 °F 46.9 °F 39% 29.78 in 10.0 mi WNW 13.8 mph - N/A   Clear
8:56 AM 77.0 °F 46.9 °F 34% 29.79 in 10.0 mi West 19.6 mph - N/A   Clear
9:56 AM 79.0 °F 43.0 °F 28% 29.81 in 10.0 mi NW 10.4 mph - N/A   Clear
10:56 AM 82.0 °F 36.0 °F 19% 29.79 in 10.0 mi West 12.7 mph - N/A   Clear
11:56 AM 84.9 °F 35.1 °F 17% 29.78 in 10.0 mi WNW 15.0 mph - N/A   Clear
12:56 PM 86.0 °F 36.0 °F 17% 29.76 in 10.0 mi NNW 8.1 mph 17.3 mph N/A   Clear
1:56 PM 88.0 °F 32.0 °F 14% 29.74 in 10.0 mi North 11.5 mph - N/A   Clear
2:56 PM 88.0 °F 30.9 °F 13% 29.73 in 10.0 mi Variable 5.8 mph - N/A   Clear
3:56 PM 89.1 °F 30.0 °F 12% 29.72 in 10.0 mi North 6.9 mph - N/A   Clear
4:56 PM 90.0 °F 28.0 °F 11% 29.71 in 10.0 mi North 4.6 mph - N/A   Clear
5:56 PM 89.1 °F 30.0 °F 12% 29.71 in 10.0 mi NNW 5.8 mph - N/A   Clear
6:56 PM 80.1 °F 32.0 °F 17% 29.72 in 10.0 mi East 4.6 mph - N/A   Clear
7:56 PM 77.0 °F 37.0 °F 24% 29.73 in 10.0 mi East 4.6 mph - N/A   Clear
8:56 PM 77.0 °F 35.1 °F 22% 29.76 in 10.0 mi West 6.9 mph - N/A   Clear
9:56 PM 75.0 °F 48.0 °F 38% 29.78 in 10.0 mi SW 6.9 mph - N/A   Clear
10:56 PM 72.0 °F 48.0 °F 43% 29.79 in 10.0 mi West 6.9 mph - N/A   Clear
11:56 PM 72.0 °F 48.0 °F 43% 29.79 in 10.0 mi SSW 4.6 mph - N/A   Clear